Regional Weather Roundup
Issued by NWS

Home | Current Version | Previous Version | Text Only | Print | Product List | Glossary On
Versions: 1 2 3 4 5 6 7 8 9 10 11 12 13 14 15 16 17 18 19 20 21 22 23 24 25 26 27 28 29 30 31 32 33 34 35 36 37 38 39 40 41 42 43 44 45 46 47 48 49 50
000
ASUS42 KFFC 311003
RWRGA
WEATHER ROUNDUP FOR GEORGIA
NATIONAL WEATHER SERVICE PEACHTREE CITY GA
600 AM EDT SUN AUG 31 2014

NOTE: "FAIR" INDICATES FEW OR NO CLOUDS BELOW 12,000 FEET WITH NO
SIGNIFICANT WEATHER AND/OR OBSTRUCTIONS TO VISIBILITY.

* = USE WITH CAUTION. THE STATIONS MARKED WITH AN ASTERISK MAY NOT
REPORT WEATHER SUCH AS PRECIPITATION, FOG, OR THUNDER AND ARE NOT
QUALITY CONTROLLED BY NWS.

THE REMARK "TC" DENOTES TEMPERATURE READING IN DEGREES CELSIUS.

GAZ001>058-311100-
NORTH GEORGIA

CITY           SKY/WX    TMP DP  RH WIND       PRES   REMARKS
ATLANTA        PTCLDY    72  70  93 E3        30.16R
ATHENS         CLOUDY    73  71  93 CALM      30.17R
CHAMBLEE       PTCLDY    70  68  93 CALM      30.17R
PEACHTREE CITY PTCLDY    70  69  97 CALM      30.17R FOG
ROME           FOG       68  68 100 CALM      30.15R VSB 1
WEST ATLANTA   CLOUDY    69  68  96 CALM      30.16R
GAINESVILLE    PTCLDY    70  69  97 CALM      30.20R
CARTERSVILLE   CLEAR     70  68  93 CALM      30.16R


CITY           SKY/WX    TMP DP  RH WIND       PRES   REMARKS
DALTON*        PTCLDY    68  68 100 CALM      30.15R
MARIETTA       CLEAR     70  70 100 CALM      30.18R
$$

GAZ059>098-102>109-311100-
CENTRAL GEORGIA

CITY           SKY/WX    TMP DP  RH WIND       PRES   REMARKS
AUGUSTA-BUSH   CLOUDY    76  73  91 N3        30.15R
AUGUSTA-DANIEL CLOUDY    78  71  79 NW12      30.17S
COLUMBUS       CLEAR     73  72  96 CALM      30.14R
MACON          MOCLDY    74  74 100 CALM      30.15R
ROBINS AFB     MOCLDY    74  73  96 SE1       30.14R


CITY           SKY/WX    TMP DP  RH WIND       PRES   REMARKS
LAGRANGE*      CLOUDY    73  73  98 CALM      30.15R
SYLVANIA*      MOCLDY    67  67 100 CALM      30.16R FOG
MILLEDGEVILLE* HVY RAIN  77  75  94 CALM      30.15R
$$

GAZ099>101-110>166-311100-
SOUTH GEORGIA

CITY           SKY/WX    TMP DP  RH WIND       PRES   REMARKS
SAVANNAH       PTCLDY    76  73  91 CALM      30.14R
VALDOSTA       CLOUDY    72  71  97 CALM      30.13S
ALMA           PTCLDY    75  72  90 W6        30.14S
ST SIMONS      PTCLDY    78  72  81 W7        30.13R
ALBANY         CLOUDY    73  72  96 SE3       30.16F
HUNTER AFB     PTCLDY    77  76  97 N1        30.11R
BRUNSWICK      PTCLDY    77  72  83 W6        30.13S


CITY           SKY/WX    TMP DP  RH WIND       PRES   REMARKS
BAINBRIDGE*    MOCLDY    79  77  94 NE5       30.12S
MOULTRIE*      CLOUDY    72  72 100 N3        30.14S
VIDALIA*         N/A     77  75  94 CALM      30.15R
WAYCROSS*      PTCLDY    78  76  92 W6        30.14R
DOUGLAS*       PTCLDY    77  70  78 W5        30.16S
$$


USA.gov is the U.S. government's official web portal to all federal, state and local government web resources and services.